Location: Red Deer
(52.2681°N, 113.8112°W)
Time: 16:37:58
(UTC-06:00)

Envisat - Pass Details

Date: 01 May 2024
Orbit: 762 x 764 km, 98.3° (Epoch: 27 May)

Event Time Altitude Azimuth Distance (km) Brightness Sun altitude
Rises 04:21:13 0° 20° (NNE) 3,240 7.6 -13.2°
Reaches altitude 10° 04:23:43 10° 29° (NNE) 2,309 6.8 -13.0°
Maximum altitude 04:28:23 36° 96° (E) 1,196 4.4 -12.5°
Drops below altitude 10° 04:33:02 10° 163° (SSE) 2,292 5.2 -12.0°
Sets 04:35:30 0° 171° (S) 3,213 5.9 -11.7°
